Theta_e
321 322 322 323 329 333 336 334 335 334 335 334 333 331 329 326 325 331 331 329 325 321 321 320 324 324 323 323 323 322 321 318
321 322 322 322 325 332 336 335 334 333 336 335 332 328 326 325 327 327 331 328 320 321 323 325 325 325 325 323 322 321 321 318
322 322 322 322 324 329 335 334 334 333 333 332 327 326 325 327 326 328 328 328 320 318 325 325 325 324 323 324 322 321 321 318
328 329 326 323 324 328 336 335 332 332 331 328 326 325 326 329 328 327 325 328 319 317 325 324 321 321 321 322 322 321 319 312
329 331 328 324 325 328 330 334 333 332 331 328 328 326 324 327 327 327 326 328 317 321 326 323 320 321 321 322 321 319 317 310
330 331 331 328 321 327 328 329 331 330 329 328 327 328 326 328 328 329 322 328 315 319 324 321 319 321 320 320 319 319 319 317
331 332 332 328 321 327 328 327 328 329 329 328 328 327 326 326 327 326 319 326 313 314 322 320 320 320 321 320 320 320 319 317
330 332 331 327 322 324 326 328 329 329 328 328 327 327 326 326 327 322 322 320 310 310 318 319 320 320 321 320 320 319 319 314
330 331 330 328 321 324 327 327 329 328 328 328 328 327 326 327 327 323 323 313 308 309 314 319 319 320 321 320 320 319 319 313
331 330 329 327 322 326 327 329 328 328 329 328 327 327 326 326 322 324 313 307 307 308 313 317 320 319 319 320 320 319 318 314
330 330 329 327 321 324 328 328 327 328 328 328 328 328 326 324 320 321 310 306 306 307 313 319 320 319 319 319 319 319 318 313
330 330 328 326 319 323 326 325 326 327 328 328 328 328 327 325 320 324 310 306 307 307 318 318 318 318 318 319 319 319 318 316
330 329 328 326 320 325 323 324 326 327 328 327 328 328 327 327 322 322 307 308 311 309 317 315 315 318 318 318 318 318 318 318
329 329 328 326 320 322 322 323 324 324 326 326 327 328 327 327 323 322 310 316 314 316 312 316 317 318 317 317 318 318 318 318
329 328 327 324 319 322 322 324 322 322 322 322 324 327 327 327 325 323 316 320 317 318 318 317 317 317 311 315 317 318 318 318
329 328 327 323 319 322 321 321 322 321 321 322 324 324 326 326 326 322 318 319 318 318 316 316 315 313 314 315 316 316 318 318
329 328 327 320 319 322 321 320 321 321 321 320 323 324 325 326 325 321 317 319 319 317 316 316 313 313 313 315 316 315 315 316
328 327 326 319 320 323 320 319 320 320 319 319 319 320 319 320 323 317 319 315 318 317 316 314 314 314 315 316 315 315 319 319
328 327 324 319 321 322 320 320 320 320 319 319 319 319 320 320 321 320 318 317 315 316 316 314 315 315 314 315 315 315 318 320
328 326 322 318 320 321 320 320 320 320 319 320 321 321 321 321 320 320 319 315 317 315 315 316 315 313 314 315 314 314 316 317
Wind_Speed
12 13 14 15 16 17 19 22 23 24 23 23 23 15 22 22 22 25 29 27 23 31 31 33 36 32 24 24 21 15 11 15
13 14 15 15 17 18 20 21 22 23 23 24 21 20 21 22 27 41 33 25 27 33 36 38 37 33 28 22 19 15 12 11
11 13 14 15 16 18 18 20 22 23 24 22 20 17 18 22 38 38 35 27 34 34 38 39 33 28 25 23 18 14 10 12
12 10 12 12 10 13 17 21 24 24 25 24 21 15 20 22 32 36 31 28 33 37 39 37 30 26 24 25 18 14 9 15
13 9 9 11 11 13 15 20 22 23 23 23 19 18 19 20 29 34 34 30 34 38 42 37 29 30 26 22 18 13 13 13
15 12 12 11 14 15 14 16 19 22 22 20 19 21 16 25 37 43 39 32 35 40 43 38 32 28 25 25 19 16 11 10
19 16 14 13 16 17 16 18 20 22 20 19 24 20 16 25 27 44 40 31 35 41 45 40 34 26 21 23 19 15 10 8
21 19 15 13 17 17 17 20 21 23 23 20 25 20 16 19 49 38 35 32 36 40 46 42 35 24 22 23 19 15 9 10
24 20 16 12 16 18 21 21 28 25 24 23 23 22 22 30 50 37 34 35 38 40 45 43 31 25 24 18 16 15 10 11
25 20 16 12 18 20 24 26 25 26 24 27 25 24 27 32 38 34 35 37 39 42 47 41 33 25 22 21 20 14 9 11
25 20 17 13 18 20 23 26 27 27 26 30 27 28 30 36 38 37 37 39 41 44 46 42 37 26 21 23 18 13 11 13
23 20 17 15 15 17 20 23 26 25 28 31 31 32 33 40 42 41 42 41 41 47 46 40 38 30 24 22 16 12 11 13
27 22 18 16 16 22 22 23 26 26 26 29 33 35 36 39 45 45 47 46 44 45 47 38 32 34 27 20 15 11 11 11
27 22 18 15 15 18 20 23 25 28 30 28 29 39 45 46 50 49 52 48 45 43 46 39 34 36 33 26 21 19 17 15
28 23 19 16 16 17 20 20 20 21 23 29 37 34 41 47 51 54 55 49 46 43 42 39 37 33 30 30 15 12 23 21
27 23 20 18 18 20 21 21 22 22 22 24 29 34 38 47 53 55 57 48 46 43 40 40 37 36 33 27 19 15 18 15
29 24 21 18 19 19 19 19 21 19 23 24 29 37 43 47 51 60 58 50 43 41 41 37 36 33 34 33 25 15 19 16
30 26 21 18 18 20 20 22 22 23 27 29 28 36 42 50 57 61 57 49 46 39 38 40 36 32 35 27 30 25 21 21
32 28 23 20 21 23 23 23 24 25 29 30 30 35 37 43 44 47 49 46 46 40 40 35 34 32 33 32 33 28 22 19
33 30 25 22 22 21 21 25 25 29 32 34 35 32 31 37 42 40 43 46 44 45 38 35 31 27 32 36 35 32 31 30
Wind_Direction
237 234 237 231 225 219 213 215 221 222 227 218 229 247 226 228 201 206 194 192 179 162 160 158 153 149 154 159 158 151 148 149
239 238 242 236 222 220 219 220 223 224 225 233 244 239 223 231 204 195 195 193 178 163 157 156 153 155 163 167 159 151 150 151
241 247 254 233 214 216 217 214 218 224 227 232 222 222 226 215 196 175 190 187 173 164 161 160 158 165 172 176 168 160 165 161
240 254 260 236 222 210 211 211 211 220 222 219 209 212 197 184 189 183 183 184 175 166 165 160 160 164 164 163 167 164 163 161
242 237 238 248 225 224 210 215 214 217 220 219 218 209 204 190 185 181 182 183 178 169 166 164 156 160 165 164 173 161 145 152
237 232 238 251 228 225 212 227 217 215 213 210 197 195 184 196 193 187 179 180 179 172 171 164 160 162 173 172 173 164 150 150
234 228 234 241 236 218 213 220 224 216 207 195 197 196 212 210 199 168 176 180 181 175 172 167 165 167 170 175 174 171 162 171
231 226 227 239 232 216 214 222 209 212 206 202 197 208 234 234 200 174 179 182 181 176 175 169 168 171 164 167 172 173 160 174
222 225 236 247 228 212 208 214 210 210 216 216 211 215 213 178 182 175 178 182 180 175 172 171 171 172 162 162 172 168 164 174
212 220 236 241 224 215 212 213 214 219 216 210 208 209 204 195 172 175 178 179 175 173 171 171 173 168 159 164 166 168 169 180
210 223 242 239 218 210 212 217 218 220 217 205 208 204 200 191 179 177 180 178 175 173 170 172 170 168 161 161 168 174 169 175
214 226 236 242 215 210 210 217 216 216 217 214 208 204 204 196 190 186 182 178 172 173 171 173 174 172 162 164 171 176 180 181
212 220 229 235 216 206 213 214 210 213 217 214 210 209 206 203 190 187 181 178 175 175 178 178 176 175 159 159 167 189 201 197
210 214 226 235 221 213 220 214 215 214 215 213 217 215 205 202 194 187 181 176 177 174 178 174 175 178 177 169 171 195 213 222
211 216 222 220 211 205 207 207 211 213 215 215 215 212 213 204 196 191 184 179 178 179 179 174 170 173 176 178 170 196 203 219
209 214 219 218 208 204 204 204 203 210 209 214 213 210 212 208 203 187 183 179 179 182 179 178 169 174 182 191 189 198 186 206
207 210 218 216 203 204 206 208 211 204 213 216 214 210 208 215 215 187 184 182 177 182 181 177 177 184 197 197 207 213 207 205
205 208 213 208 194 200 206 207 202 200 200 195 190 185 180 182 189 180 184 180 180 183 184 186 195 197 201 205 210 212 209 212
204 206 208 201 191 201 210 210 207 201 194 191 176 189 177 172 171 174 179 178 181 185 192 193 197 205 209 212 214 223 230 222
203 203 207 198 191 198 210 211 204 199 189 189 186 180 177 174 179 187 188 189 186 185 196 199 209 221 216 216 224 229 238 244